This is the latest recevied weather packets stored in our database for station/object KC7UNY-13. If no packets are shown the sender has not sent any weather packets the latest 10 day(s).
| Time | Temp. | Humidity | Pressure | Rain* | Wind** | Luminosity | Snow |
|---|---|---|---|---|---|---|---|
| 1777334922 | 28.33° C | 19% | 1010.4 hPa | 0 mm | - | 187 W/m² | - |
| 1777334620 | 28.89° C | 18% | 1010.6 hPa | 0 mm | - | 201 W/m² | - |
| 1777334317 | 28.89° C | 19% | 1010.7 hPa | 0 mm | - | 214 W/m² | - |
| 1777334012 | 28.89° C | 19% | 1010.2 hPa | 0 mm | - | 229 W/m² | - |
| 1777333708 | 29.44° C | 18% | 1010.6 hPa | 0 mm | - | 244 W/m² | - |
| 1777333405 | 28.33° C | 19% | 1010.6 hPa | 0 mm | - | 259 W/m² | - |
| 1777333103 | 27.78° C | 20% | 1010.4 hPa | 0 mm | - | 273 W/m² | - |
| 1777332801 | 27.78° C | 19% | 1010.8 hPa | 0 mm | - | 289 W/m² | - |
| 1777332497 | 27.78° C | 19% | 1011.1 hPa | 0 mm | - | 306 W/m² | - |
| 1777332194 | 28.33° C | 19% | 1010.9 hPa | 0 mm | - | 323 W/m² | - |
| 1777331891 | 29.44° C | 18% | 1010.8 hPa | 0 mm | - | 337 W/m² | - |
| 1777331589 | 29.44° C | 19% | 1010.7 hPa | 0 mm | - | 354 W/m² | - |
| 1777331286 | 29.44° C | 19% | 1010.7 hPa | 0 mm | - | 371 W/m² | - |
| 1777330983 | 28.33° C | 18% | 1010.8 hPa | 0 mm | - | 386 W/m² | - |
| 1777330680 | 28.89° C | 19% | 1011 hPa | 0 mm | - | 401 W/m² | - |
| 1777330377 | 27.78° C | 19% | 1011 hPa | 0 mm | - | 398 W/m² | - |
| 1777330074 | 28.89° C | 19% | 1011 hPa | 0 mm | - | 433 W/m² | - |
| 1777329774 | 28.89° C | 19% | 1011 hPa | 0 mm | - | 449 W/m² | - |
| 1777329472 | 27.78° C | 20% | 1011.1 hPa | 0 mm | - | 459 W/m² | - |
| 1777329169 | 28.33° C | 20% | 1011.1 hPa | 0 mm | - | 482 W/m² | - |
| 1777328866 | 28.33° C | 20% | 1011.1 hPa | 0 mm | - | 496 W/m² | - |
| 1777328564 | 29.44° C | 20% | 1011 hPa | 0 mm | - | 505 W/m² | - |
| 1777328262 | 28.33° C | 20% | 1011.4 hPa | 0 mm | - | 521 W/m² | - |
| 1777327960 | 27.22° C | 20% | 1011.3 hPa | 0 mm | - | 539 W/m² | - |
| 1777327658 | 27.22° C | 20% | 1011.5 hPa | 0 mm | - | 553 W/m² | - |
* Rain latest hour (hover to see other rain measurements)
** Current wind speed in m/s (hover to see current wind gust speed)